Regional Weather Roundup
Issued by NWS

Home | Current Version | Previous Version | Graphics & Text | Print | Product List | Glossary On
Versions: 1 2 3 4 5 6 7 8 9 10 11 12 13 14 15 16 17 18 19 20 21 22 23 24 25 26 27 28 29 30 31 32 33 34 35 36 37 38 39 40 41 42 43 44 45 46 47 48 49 50
359
ASUS43 KFSD 282302
RWRSD

WEATHER ROUNDUP FOR SOUTH DAKOTA
NATIONAL WEATHER SERVICE SIOUX FALLS SD
600 PM CDT WED SEP 28 2016

NOTE: "FAIR" INDICATES FEW OR NO CLOUDS BELOW 12,000 FEET WITH NO
SIGNIFICANT WEATHER AND/OR OBSTRUCTIONS TO VISIBILITY.


SDZ001>005-009-010-012>017-290000-
NORTHWEST AND NORTH CENTRAL SOUTH DAKOTA

CITY           SKY/WX    TMP DP  RH WIND       PRES   REMARKS
BUFFALO          N/A     79  47  32 SE13      30.19R
FAITH            N/A     73  41  31 SE10      30.28R
MOBRIDGE       SUNNY     68  46  45 E8        30.28R
$$

SDZ012>016-024>037-041>051-057-063-072>074-290000-
SOUTHWEST AND SOUTH CENTRAL SOUTH DAKOTA

CITY           SKY/WX    TMP DP  RH WIND       PRES   REMARKS
RAPID CTY ARPT SUNNY     76  45  33 SE6       30.27R
PIERRE         SUNNY     69  46  43 E9        30.27R
CUSTER         SUNNY     69  41  36 E13G25    30.37R
ELLSWORTH AFB  SUNNY     77  46  33 E9        30.27R
PHILIP         SUNNY     73  35  25 E9        30.26R
PINE RIDGE     SUNNY     80  43  26 VRB3      30.25R
WINNER         FAIR      68  47  46 NE8       30.28R
$$

SDZ004>011-016>023-039-040-290000-
NORTHEAST SOUTH DAKOTA

CITY           SKY/WX    TMP DP  RH WIND       PRES   REMARKS
ABERDEEN       SUNNY     65  42  43 NE7       30.31R
WATERTOWN      SUNNY     59  46  62 NE8       30.32R
SISSETON         N/A     63  46  54 NE6       30.32R
$$

SDZ017-020-022-023-036>040-048>070-290000-
SOUTHEAST SOUTH DAKOTA

CITY           SKY/WX    TMP DP  RH WIND       PRES   REMARKS
SIOUX FALLS    MOSUNNY   62  47  57 E12       30.29R
HURON          SUNNY     68  43  40 NE8       30.28R
CHAMBERLAIN    SUNNY     69  44  41 E5        30.28S
MITCHELL       SUNNY     67  43  41 NE9       30.29R
YANKTON        SUNNY     66  43  42 NE10      30.26R
$$

ABBREVIATIONS USED IN REMARKS
   TC - TEMPERATURE IN CELSIUS
  WCI - WIND CHILL INDEX
   HX - HEAT INDEX
  VSB - VISIBILITY





USA.gov is the U.S. government's official web portal to all federal, state and local government web resources and services.